Hourly Data Report for November 30, 2012

BAGOTVILLE A
QUEBEC

48°20'00.000" N
71°00'00.000" W
159.10 m
7060400
71727
YBG

Download Data

Hourly Data (November 2012)
Hourly Data Report for November 30, 2012
TIME
LST
Temp Definition
°C
Dew Point Definition
°C
Rel Hum Definition
%
Precip. Amount Definition
mm

Wind Dir Definition
10's deg

Wind Spd Definition
km/h
Visibility Definition
km
Stn Press Definition
kPa
Hmdx Definition


Wind Chill Definition


Weather Definition


00:00 -15.0 -19.7 67   31 19 24.1 100.63   -24 Mostly Cloudy
01:00 -15.0 -19.7 67   30 22 24.1 100.71   -25 Cloudy
02:00 -15.2 -19.3 71   31 22 24.1 100.87   -25 Cloudy
03:00 -15.2 -19.3 71   29 19 24.1 100.91   -24 Snow Showers
04:00 -14.6 -18.5 72   29 24 16.1 100.96   -24 Snow Showers
05:00 -14.6 -18.5 72   28 24 16.1 101.04   -24 Snow Showers
06:00 -14.8 -18.8 72   27 20 8.0 101.13   -24 Snow Showers
07:00 -14.8 -18.8 72   26 15 8.0 101.21   -23 Snow Showers
08:00 -14.4 -17.1 80   28 15 4.8 101.29   -22 Snow
09:00 -13.9 -16.6 80   27 9 4.8 101.32   -20 Snow
10:00 -13.4 -16.0 81   28 11 3.2 101.39   -20 Snow
11:00 -13.9 -16.6 80   28 15 3.2 101.38   -22 Snow
12:00 -12.4 -15.3 79   29 19 9.7 101.37   -21 Snow
13:00 -11.6 -14.8 77   27 15 4.8 101.39   -19 Snow
14:00 -11.7 -14.9 77   30 19 9.7 101.40   -20 Snow
15:00 -11.7 -14.9 77   28 17 12.9 101.45   -19 Snow
16:00 -11.6 -14.8 77   31 15 24.1 101.53   -19 Snow Showers
17:00 -11.7 -15.4 74   36 9 24.1 101.58   -17 Snow Showers
18:00 -11.8 -15.1 76   36 4 24.1 101.63   -14 Snow
19:00 -12.2 -15.1 79     0 12.9 101.65     Snow
20:00 -12.4 -15.3 79   20 4 16.1 101.68   -15 Snow
21:00 -12.6 -15.0 82     0 24.1 101.70     Snow
22:00 -14.4 -17.1 80   19 6 24.1 101.70   -19 Mainly Clear
23:00 -14.4 -17.1 80   22 6 24.1 101.72   -19 Mainly Clear

Notes on Data Quality.

Legend

  • E = Estimated
  • M = Missing
  • NA = Not Available*
  • [empty] = Indicates an unobserved value
Date modified: